Skip Page Navigation
NASA JPL Caltech
NASA Logo - Jet Propulsion Laboratory + View the NASA Portal
+ Center for Near-Earth Object Studies
JPL Home Earth Solar System Stars & Galaxies Technology
JPL Solar System Dynamics
BODIES ORBITS EPHEMERIDES TOOLS PHYSICAL DATA DISCOVERY FAQ SITE MAP
JPL Small-Body Database Browser
Search: [ help ]  
192357 (1995 UY16)
Classification: Main-belt Asteroid          SPK-ID: 2192357
Ephemeris | Orbit Diagram | Orbital Elements | Mission Design | Physical Parameters | Discovery Circumstances | Close-Approach Data ]

[ show orbit diagram ]
Orbital Elements at Epoch 2459200.5 (2020-Dec-17.0) TDB
Reference: JPL 14 (heliocentric ecliptic J2000)
 Element Value Uncertainty (1-sigma)   Units 
e .207303077025772 5.2647e-08  
a 2.638106989928112 1.8706e-08 au
q 2.091219293392817 1.4623e-07 au
i 8.663989626936763 4.903e-06 deg
node 60.6823195856322 2.9853e-05 deg
peri 316.9975330123294 3.1534e-05 deg
M 330.5524419885087 1.3107e-05 deg
tp 2459328.521767552505
(2021-Apr-24.02176755)
5.7989e-05 TDB
period 1565.081773535072
4.28
1.6646e-05
4.557e-08
d
yr
n .2300199300045921 2.4465e-09 deg/d
Q 3.184994686463408 2.2584e-08 au
  Orbit Determination Parameters
   # obs. used (total)      419  
   data-arc span      9020 days (24.70 yr)  
   first obs. used      1995-10-17  
   last obs. used      2020-06-27  
   planetary ephem.      DE441  
   SB-pert. ephem.      SB441-N16  
   condition code      0  
   norm. resid. RMS      .57305  
   source      ORB  
   producer      Otto Matic  
   solution date      2021-Apr-13 22:15:46  

Additional Information
 Earth MOID = 1.10224 au 
 Jupiter MOID = 2.29541 au 
 T_jup = 3.350 
[ show covariance matrix ]

Ephemeris | Orbit Diagram | Orbital Elements | Mission Design | Physical Parameters | Discovery Circumstances | Close-Approach Data ]

Physical Parameter Table
Parameter Symbol Value Units Sigma Reference Notes
absolute magnitude H 15.92   n/a E2021B55  
diameter diameter 3.435 km 1.076 urn:nasa:pds:neowise_diameters_albedos::2.0[mainbelt] (http://adsabs.harvard.edu/abs/2011ApJ...741...68M)  
geometric albedo albedo 0.086   0.030 urn:nasa:pds:neowise_diameters_albedos::2.0[mainbelt] (http://adsabs.harvard.edu/abs/2011ApJ...741...68M)  

192357 (1995 UY16)          Discovered 1995-Oct-17 by Spacewatch at Kitt Peak
Reference: 20081113/Numbers.arcLast Updated: 2008-11-17

[ show close-approach data ]
Ephemeris | Orbit Diagram | Orbital Elements | Mission Design | Physical Parameters | Discovery Circumstances | Close-Approach Data ]
ABOUT SSD CREDITS/AWARDS PRIVACY/COPYRIGHT GLOSSARY LINKS
FirstGov 2021-May-12 08:25 UT
(server date/time)  
NASA Home Page
Site Manager:   Ryan S. Park
Webmaster  Alan B. Chamberlin